Leominster, MA

12:43 PM EST on February 14, 2016 (GMT -0500)
Fitchburg Municipal

Weather History for KFIT - August, 2013

Change the Weather History Date:

Monday, August 12, 2013

  Actual Average (KORH) Record (KORH)
Temperature  
Mean Temperature 70 °F 70 °F  
Max Temperature 82 °F 78 °F 99 °F (1944)
Min Temperature 59 °F 61 °F 49 °F (1954)
Degree Days  
Heating Degree Days 0 1  
Month to date heating degree days 3  
Since 1 June heating degree days 100  
Since 1 July heating degree days 17  
Cooling Degree Days 6 5  
Month to date cooling degree days 66  
Year to date cooling degree days 347  
Since 1 June cooling degree days 325  
Growing Degree Days 20 (Base 50)    
Moisture  
Dew Point 56 °F    
Average Humidity 63    
Maximum Humidity 90    
Minimum Humidity 37    
Precipitation  
Precipitation 0.00 in 0.12 in 2.22 in (1931)
Month to date precipitation 1.58  
Year to date precipitation 29.23  
Sea Level Pressure  
Sea Level Pressure 29.99 in    
Wind  
Wind Speed 4 mph (WNW)    
Max Wind Speed 9 mph    
Max Gust Speed -    
Visibility 10 miles    
Events      
T = Trace of Precipitation, MM = Missing Value Source: NWS Daily Summary

Daily Weather History Graph

Daily Weather History Graph

Search for Another Location

Airport or City:

Trip Planner

Search our weather history database for the weather conditions in past years. The results will help you decide how hot, cold, wet, or windy it might be!

Date:

Astronomy

Aug. 12, 2013 Rise Set
Actual Time 5:50 AM EDT 7:52 PM EDT
Civil Twilight 5:20 AM EDT 8:23 PM EDT
Nautical Twilight 4:42 AM EDT 9:00 PM EDT
Astronomical Twilight 4:01 AM EDT 9:41 PM EDT
Moon 11:47 AM EDT (8/12) 10:33 PM EDT (8/12)
Length of Visible Light 15h 02m
Length of Day
14h 01m
Waxing Crescent, 31% of the Moon is Illuminated
Aug 12
Waxing Crescent
Aug 14
First Quarter
Aug 20
Full
Aug 28
Last Quarter
Sep 5
New

Hourly Weather History & Observations

Time (EDT) Temp. Heat Index Dew Point Humidity Pressure Visibility Wind Dir Wind Speed Gust Speed Precip Events Conditions
12:52 AM 62.1 °F - 55.9 °F 80% 30.04 in 10.0 mi NNW 5.8 mph - N/A   Clear
1:52 AM 59.0 °F - 55.0 °F 87% 30.04 in 10.0 mi North 3.5 mph - N/A   Clear
2:52 AM 60.1 °F - 55.0 °F 83% 30.04 in 10.0 mi Calm Calm - N/A   Scattered Clouds
3:52 AM 61.0 °F - 55.9 °F 83% 30.03 in 10.0 mi Calm Calm - N/A   Mostly Cloudy
4:52 AM 60.1 °F - 55.9 °F 86% 30.02 in 10.0 mi NNW 3.5 mph - N/A   Scattered Clouds
5:52 AM 61.0 °F - 55.9 °F 83% 30.03 in 10.0 mi NW 3.5 mph - N/A   Clear
6:52 AM 63.0 °F - 57.0 °F 81% 30.04 in 10.0 mi North 4.6 mph - N/A   Clear
7:52 AM 68.0 °F - 57.0 °F 68% 30.04 in 10.0 mi WNW 4.6 mph - N/A   Clear
8:52 AM 72.0 °F - 55.9 °F 57% 30.03 in 10.0 mi NW 8.1 mph - N/A   Clear
9:52 AM 75.0 °F - 55.0 °F 50% 30.02 in 10.0 mi WNW 8.1 mph - N/A   Clear
10:52 AM 77.0 °F - 53.1 °F 43% 30.02 in 10.0 mi NNW 8.1 mph - N/A   Clear
11:52 AM 79.0 °F - 52.0 °F 39% 30.01 in 10.0 mi NNW 6.9 mph - N/A   Clear
12:52 PM 80.1 °F - 52.0 °F 38% 29.99 in 10.0 mi West 4.6 mph - N/A   Clear
1:52 PM 81.0 °F 80.4 °F 53.1 °F 38% 29.98 in 10.0 mi West 8.1 mph - N/A   Partly Cloudy
2:52 PM 82.0 °F 81.2 °F 53.1 °F 37% 29.97 in 10.0 mi NW 6.9 mph - N/A   Partly Cloudy
3:52 PM 79.0 °F - 54.0 °F 42% 29.96 in 10.0 mi SW 8.1 mph - N/A   Scattered Clouds
4:52 PM 80.1 °F 80.1 °F 55.0 °F 42% 29.95 in 10.0 mi SW 9.2 mph - N/A   Clear
5:52 PM 80.1 °F 80.6 °F 57.9 °F 47% 29.95 in 10.0 mi SW 5.8 mph - N/A   Clear
6:52 PM 78.1 °F - 57.9 °F 50% 29.94 in 10.0 mi SSW 4.6 mph - N/A   Clear
7:52 PM 73.9 °F - 60.1 °F 62% 29.94 in 10.0 mi Calm Calm - N/A   Clear
8:52 PM 70.0 °F - 61.0 °F 73% 29.95 in 10.0 mi Calm Calm - N/A   Clear
9:52 PM 66.9 °F - 61.0 °F 81% 29.95 in 10.0 mi Calm Calm - N/A   Clear
10:52 PM 66.9 °F - 62.1 °F 84% 29.94 in 10.0 mi Calm Calm - N/A   Clear
11:52 PM 64.9 °F - 62.1 °F 90% 29.94 in 10.0 mi Calm Calm - N/A   Clear